sat.trackr.live / text

‹ back to catalog

ASNARO-2

NORAD 43152 · 2018-007A

PAYLOAD ACTIVE UNKNOWN

§ Identity

Operator
Country
JPN
Launch date
2018-01-17
Launch site
KSCUT
Launch vehicle
Mass (kg)
RCS (m²)

External: N2YO · Heavens-Above · Gunter

§ Orbital elements

Epoch: 2026-05-25T04:21:16.912800Z

Period
94.59 min
Inclination
97.3983°
Eccentricity
0.0001723
Mean motion
15.22418781 rev/d
Perigee alt
497.4 km
Apogee alt
499.7 km
Semi-major
6,876.7 km
B*
3.9404e-4
RAAN
152.4673°
Arg perigee
92.2812°
Mean anomaly
267.8622°
Rev number
46,391

§ Raw data

ASNARO-21 43152U 18007A   26145.18144575  .00009043  00000+0  39404-3 0  99922 43152  97.3983 152.4673 0001723  92.2812 267.8622 15.22418781463916

JSON: /api/v1/satellites/43152 · /tle

For live sub-satellite position, see the globe view (requires WebGL).

§ Visibility from observer

Set your observer location to see the next 7 days of passes ≥ 10°. The values pass through the URL so the page stays shareable.

No JS? Fill the form by hand. The geolocation button needs JavaScript.

§ Radio — SatNOGS DB

ModeDescriptionDownlinkUplink
FM S-band telemetry 2.272 GHz

1 transmitter · refreshed weekly from db.satnogs.org